Location: Bas-Clignon
(44.2000°N, 6.6333°E)
Time: 01:22:30
(UTC+00:00)

Cosmos 44 Rocket - Pass Details

Date: 03 February 2023
Orbit: 646 x 741 km, 65.1° (Epoch: 27 March)

Event Time Altitude Azimuth Distance (km) Brightness Sun altitude
Rises 18:02:58 0° 185° (S) 2,945 6.7 -14.1°
Reaches altitude 10° 18:05:26 10° 175° (S) 2,045 5.8 -14.6°
Maximum altitude 18:09:29 30° 114° (ESE) 1,163 4.0 -15.3°
Enters shadow 18:10:45 26° 85° (E) 1,284 4.1 -15.5°
